Flag for Germany Weather past 2 weeks in Rendsburg, Schleswig-Holstein, Germany

Now
64 °F

Passing clouds.


Feels Like: 64 °F
Forecast: 56 / 65 °F
Wind: 6 mph from Southwest

Location: Hohn

Current Time: Jul 8, 2015 at 12:03:10 AM

Latest Report: Jul 7, 2015 at 11:20 PM


Visibility: N/A

Pressure: 29.59 "Hg

Humidity: 94%

Dew point: 63 °F

Location of RendsburgLocation

Historic Weather in Rendsburg — Graph

°F

Rendsburg temperature yesterday

Maximum temperature yesterday: 77 °F (at 1:20 PM)
Minimum temperature yesterday: 52 °F (at 4:20 AM)
Average temperature yesterday: 65 °F

Past Weeks' High & Low Weather Summary

 TemperatureHumidityPressure
High88 °F (Jul 2, 5:20 PM)100% (Jun 26, 4:20 AM)30.24 "Hg (Jun 26, 4:20 AM)
Low46 °F (Jun 23, 5:20 AM)31% (Jul 2, 5:20 PM)29.59 "Hg (Jul 7, 8:20 PM)
Average64 °F75%30.06 "Hg
* Reported Jun 22 10:20 PM — Jul 7 10:20 PM, Rendsburg, Weather by CustomWeather, © 2015

Note: Actual official high and low records may vary slightly from our data, if they occured in-between our weather recording intervals... More about our weather records

Advertising

Rendsburg weather history for previous 24 hours

 ConditionsComfort  
Time TempWeatherWind HumidityBarometerVisibility
10:20 PM
Tue, Jul 7
64 °FThunderstorms. Broken clouds.10 mph94%29.62 "Hg2 mi
9:56 PM66 °FThunderstorms. Broken clouds.8 mph78%29.59 "Hg6 mi
9:20 PM68 °FThunderstorms. Partly sunny.6 mph73%29.59 "Hg5 mi
8:20 PM68 °FPartly sunny.5 mph78%29.59 "HgN/A
7:20 PM68 °FBroken clouds.3 mph78%29.65 "HgN/A
6:20 PM70 °FLight rain. Broken clouds.1 mph83%29.71 "Hg6 mi
5:20 PM75 °FLight rain. Broken clouds.No wind50%29.74 "HgN/A
4:20 PM75 °FBroken clouds.1 mph54%29.74 "HgN/A
3:20 PM75 °FLight rain. Broken clouds.5 mph47%29.77 "HgN/A
2:20 PM75 °FBroken clouds.8 mph47%29.80 "HgN/A
1:20 PM77 °FScattered clouds.8 mph47%29.80 "HgN/A
12:20 PM75 °FPassing clouds.10 mph50%29.83 "HgN/A
11:20 AM73 °FPassing clouds.9 mph53%29.86 "HgN/A
10:20 AM72 °FPassing clouds.9 mph57%29.89 "HgN/A
9:20 AM66 °FPassing clouds.8 mph68%29.92 "HgN/A
8:20 AM63 °FPassing clouds.8 mph77%29.92 "HgN/A
7:20 AM59 °FPassing clouds.3 mph82%29.95 "HgN/A
6:20 AM54 °FPassing clouds.2 mph94%29.95 "HgN/A
5:20 AM52 °FPassing clouds.3 mph94%29.98 "HgN/A
4:20 AM52 °FPassing clouds.5 mph88%29.98 "HgN/A
3:20 AM54 °FPassing clouds.3 mph88%30.01 "HgN/A
2:20 AM55 °FPassing clouds.6 mph82%30.01 "HgN/A
1:20 AM55 °FPassing clouds.3 mph82%30.04 "HgN/A
12:20 AM54 °FPassing clouds.5 mph88%30.04 "HgN/A
Weather by CustomWeather, © 2015

See weather overviewHow to use our weather pages